Stations météo

réclame
Mon MeteoGroup
Pantelleria, Italie (16470): Température de l'air & dewpoint: 17.04.2018 03:00:00 - 23.04.2018 03:00:00 (CEST)Pantelleria, Italie (16470): Vitesse du vent: 17.04.2018 03:00:00 - 23.04.2018 03:00:00 (CEST)Pantelleria, Italie (16470): Direction du vent: 17.04.2018 03:00:00 - 23.04.2018 03:00:00 (CEST)Pantelleria, Italie (16470): reduced air pressure: 17.04.2018 03:00:00 - 23.04.2018 03:00:00 (CEST)Pantelleria, Italie (16470): visibility: 17.04.2018 03:00:00 - 23.04.2018 03:00:00 (CEST)Pantelleria, Italie (16470): Ensoleillement: 17.04.2018 03:00:00 - 23.04.2018 03:00:00 (CEST)
Date & Time tt [°C] td [°C] ff [km/h] ff [knt] dd ppp [hPa] vv [km] sd [min]
23.04.2018 03:00:00 - - - - - - - -
23.04.2018 02:00:00 - - - - - - - -
23.04.2018 01:00:00 - - - - - - - -
23.04.2018 00:00:00 - - - - - - - -
22.04.2018 23:00:00 - - - - - - - -
22.04.2018 22:00:00 - - - - - - - -
22.04.2018 21:00:00 - - - - - - - -
22.04.2018 20:00:00 18,2 16,5 2 1 ENE 1018,3 12 48
22.04.2018 19:00:00 18,6 16,9 8 4 ENE 1018,2 12 60
22.04.2018 18:00:00 20,6 15,8 18 10 S 1018,1 15 60
22.04.2018 17:00:00 21,8 12,7 18 10 SSW 1017,8 18 60
22.04.2018 16:00:00 19,6 15,5 11 6 NNE 1018,2 20 60
22.04.2018 15:00:00 23,2 10,6 22 12 S 1018,3 15 60
22.04.2018 14:00:00 23,4 11,8 18 10 S 1018,8 15 60
22.04.2018 13:00:00 23,0 12,0 18 10 S 1018,8 15 60
22.04.2018 12:00:00 21,0 14,2 21 11 S 1019,0 15 60
22.04.2018 11:00:00 21,0 13,0 15 8 S 1019,0 15 60
22.04.2018 10:00:00 20,0 16,4 18 10 SSE 1018,9 15 60
22.04.2018 09:00:00 17,2 13,3 11 6 S 1018,4 10 18
22.04.2018 08:00:00 16,6 12,7 13 7 S 1018,4 10 0
22.04.2018 07:00:00 17,0 11,1 9 5 E 1018,4 10 0
22.04.2018 06:00:00 - - - - - - - -
22.04.2018 05:00:00 - - - - - - - -
22.04.2018 04:00:00 - - - - - - - -
22.04.2018 03:00:00 - - - - - - - -
22.04.2018 02:00:00 - - - - - - - -
22.04.2018 01:00:00 - - - - - - - -
22.04.2018 00:00:00 - - - - - - - -
21.04.2018 23:00:00 - - - - - - - -
21.04.2018 22:00:00 - - - - - - - -
21.04.2018 21:00:00 - - - - - - - -
21.04.2018 20:00:00 16,6 14,6 8 4 E 1018,4 15 48
21.04.2018 19:00:00 18,4 12,8 9 5 NE 1018,4 20 60
21.04.2018 18:00:00 18,4 13,5 11 6 NE 1018,7 20 60
21.04.2018 17:00:00 18,2 14,1 8 4 NNE 1018,9 20 60
21.04.2018 16:00:00 18,0 15,6 11 6 NNE 1019,1 20 60
21.04.2018 15:00:00 20,6 14,5 9 5 NW 1019,9 10 60
21.04.2018 14:00:00 20,0 14,4 9 5 NW 1019,9 10 60
21.04.2018 13:00:00 18,8 13,2 9 5 NW 1020,0 10 60
21.04.2018 12:00:00 18,8 14,1 9 5 WNW 1020,0 10 60
21.04.2018 11:00:00 17,6 14,9 9 5 NNW 1020,1 10 60
21.04.2018 10:00:00 17,0 15,0 8 4 NW 1019,4 10 60
21.04.2018 09:00:00 15,4 13,4 9 5 N 1019,3 10 0
21.04.2018 08:00:00 15,0 13,0 0 0 N 1019,4 10 0
21.04.2018 07:00:00 14,0 12,0 4 2 ENE 1019,4 8 0
21.04.2018 06:00:00 - - - - - - - -
21.04.2018 05:00:00 - - - - - - - -
21.04.2018 04:00:00 - - - - - - - -
21.04.2018 03:00:00 - - - - - - - -
21.04.2018 02:00:00 - - - - - - - -
21.04.2018 01:00:00 - - - - - - - -
21.04.2018 00:00:00 - - - - - - - -
20.04.2018 23:00:00 - - - - - - - -
20.04.2018 22:00:00 - - - - - - - -
20.04.2018 21:00:00 - - - - - - - -
20.04.2018 20:00:00 15,4 13,8 4 2 NE 1019,1 6 0
20.04.2018 19:00:00 16,4 15,6 5 3 NNW 1019,1 7 54
20.04.2018 18:00:00 18,0 17,0 9 5 NW 1018,9 7 60
20.04.2018 17:00:00 18,2 17,2 8 4 NW 1019,1 7 42
20.04.2018 16:00:00 17,2 16,2 5 3 NNE 1019,8 7 36
20.04.2018 15:00:00 17,8 16,0 9 5 N 1020,1 8 60
20.04.2018 14:00:00 17,0 15,5 9 5 N 1020,6 4,0 54
20.04.2018 13:00:00 17,4 15,2 9 5 NNE 1021,0 4,0 60
20.04.2018 12:00:00 16,8 14,8 9 5 NNE 1021,2 4,0 54
20.04.2018 11:00:00 16,2 14,4 8 4 NNW 1021,1 2,0 30
20.04.2018 10:00:00 14,6 13,0 4 2 N 1020,7 0,7 0
20.04.2018 09:00:00 14,2 12,8 8 4 NW 1020,4 0,2 0
20.04.2018 08:00:00 14,4 13,4 5 3 WNW 1019,9 0,1 0
20.04.2018 07:00:00 13,6 11,7 2 1 SSW 1020,3 6 0
20.04.2018 06:00:00 - - - - - - - -
20.04.2018 05:00:00 - - - - - - - -
20.04.2018 04:00:00 - - - - - - - -
20.04.2018 03:00:00 - - - - - - - -
20.04.2018 02:00:00 - - - - - - - -
20.04.2018 01:00:00 - - - - - - - -
20.04.2018 00:00:00 - - - - - - - -
19.04.2018 23:00:00 - - - - - - - -
19.04.2018 22:00:00 - - - - - - - -
19.04.2018 21:00:00 - - - - - - - -
19.04.2018 20:00:00 15,4 14,4 0 0 N 1021,4 10 0
19.04.2018 19:00:00 16,4 14,6 9 5 ENE 1021,3 12 60
19.04.2018 18:00:00 16,4 14,6 11 6 NE 1021,4 12 60
19.04.2018 17:00:00 16,8 15,5 11 6 NE 1021,4 12 60
19.04.2018 16:00:00 17,4 16,1 9 5 NNE 1021,5 12 54
19.04.2018 15:00:00 17,2 16,2 11 6 NNE 1022,2 11 30
19.04.2018 14:00:00 17,4 16,3 9 5 NW 1022,5 11 54
19.04.2018 13:00:00 18,8 16,2 13 7 NE 1022,4 11 54
19.04.2018 12:00:00 17,4 15,9 15 8 NNE 1022,9 11 60
19.04.2018 11:00:00 18,4 14,7 9 5 E 1022,6 11 60
19.04.2018 10:00:00 16,4 14,2 11 6 NE 1022,3 15 54
19.04.2018 09:00:00 15,2 13,0 9 5 E 1022,1 12 0
19.04.2018 08:00:00 14,4 12,3 2 1 E 1022,3 8 0
19.04.2018 07:00:00 13,2 11,1 9 5 ENE 1022,0 8 0
19.04.2018 06:00:00 - - - - - - - -
19.04.2018 05:00:00 - - - - - - - -
19.04.2018 04:00:00 - - - - - - - -
19.04.2018 03:00:00 - - - - - - - -
19.04.2018 02:00:00 - - - - - - - -
19.04.2018 01:00:00 - - - - - - - -
19.04.2018 00:00:00 - - - - - - - -
18.04.2018 23:00:00 - - - - - - - -
18.04.2018 22:00:00 - - - - - - - -
18.04.2018 21:00:00 - - - - - - - -
18.04.2018 20:00:00 14,0 12,1 13 7 ENE 1021,7 10 0
18.04.2018 19:00:00 14,4 12,4 15 8 NE 1021,6 10 0
18.04.2018 18:00:00 14,6 13,0 15 8 NNE 1021,5 10 12
18.04.2018 17:00:00 14,8 13,2 15 8 NE 1021,6 15 48
18.04.2018 16:00:00 14,8 12,8 13 7 N 1021,5 15 60
18.04.2018 15:00:00 14,6 12,5 13 7 NNW 1021,6 15 42
18.04.2018 14:00:00 15,0 12,9 13 7 N 1022,0 15 48
18.04.2018 13:00:00 15,0 12,9 15 8 NNW 1022,0 15 42
18.04.2018 12:00:00 15,0 12,9 15 8 NNW 1021,9 12 30
18.04.2018 11:00:00 14,2 12,1 13 7 NNE 1022,0 12 12
18.04.2018 10:00:00 13,8 11,7 16 9 N 1021,7 10 0
18.04.2018 09:00:00 13,4 11,3 9 5 N 1021,4 6 0
18.04.2018 08:00:00 13,0 10,9 13 7 NNW 1021,1 6 0
18.04.2018 07:00:00 13,0 10,9 16 9 NNW 1020,1 4,0 0
18.04.2018 06:00:00 - - - - - - - -
18.04.2018 05:00:00 - - - - - - - -
18.04.2018 04:00:00 - - - - - - - -
18.04.2018 03:00:00 - - - - - - - -
18.04.2018 02:00:00 - - - - - - - -
18.04.2018 01:00:00 - - - - - - - -
18.04.2018 00:00:00 - - - - - - - -
17.04.2018 23:00:00 - - - - - - - -
17.04.2018 22:00:00 - - - - - - - -
17.04.2018 21:00:00 - - - - - - - -
17.04.2018 20:00:00 13,8 11,9 13 7 WNW 1019,7 6 0
17.04.2018 19:00:00 14,0 12,0 15 8 NW 1019,7 10 0
17.04.2018 18:00:00 14,0 12,0 16 9 WNW 1019,7 10 12
17.04.2018 17:00:00 15,0 13,0 16 9 NW 1020,1 10 48
17.04.2018 16:00:00 15,0 13,0 18 10 NW 1020,3 10 48
17.04.2018 15:00:00 15,6 13,6 26 14 WNW 1020,3 15 12
17.04.2018 14:00:00 15,0 13,0 22 12 NW 1020,7 10 42
17.04.2018 13:00:00 15,6 13,6 21 11 WNW 1020,5 12 24
17.04.2018 12:00:00 15,0 13,0 18 10 NW 1020,6 15 0
17.04.2018 11:00:00 14,4 12,4 16 9 WNW 1020,6 15 18
17.04.2018 10:00:00 14,4 12,6 21 11 W 1020,5 12 36
17.04.2018 09:00:00 14,4 12,6 16 9 WNW 1019,8 15 12
17.04.2018 08:00:00 13,4 11,6 11 6 WNW 1019,5 12 0
17.04.2018 07:00:00 13,2 11,6 15 8 W 1018,7 15 0
17.04.2018 06:00:00 - - - - - - - -
17.04.2018 05:00:00 - - - - - - - -
17.04.2018 04:00:00 - - - - - - - -
17.04.2018 03:00:00 - - - - - - - -

tt = Température de l'air
td = dewpoint
ff = Vitesse du vent
dd = Direction du vent
ppp = reduced air pressure
vv = visibility
sd = Ensoleillement

stations d'obs. à proximité